Retour au catalogue

COSMOS 1691 DEB

ActifPO
NORAD 16268·DEBRIS·🇷🇺 Russia

Lancé Oct 9, 1985 depuis Plesetsk Cosmodrome

Loading…

Prochains Passages (prochaines 24 heures)

TLE

FraisSource: Space-Track

Époque: Sep 14, 2026, 11:17 UTC

1 16268U 85094M   26257.47063440  .00000086  00000-0  45520-3 0  9992
2 16268  82.7124 144.7071 0085743 299.9006 237.1673 12.56655033868035

Suivez COSMOS 1691 DEB en temps réel avec AllMySat

Download on the App Store